SCP
0 0 0 0 0 0 0 0 0 0 0 0 0 0 -0 0 0 0 0 0 0 0 0 0 0 0 0 0 0 0 0 0 0 0 0 0 0 0 0 0 0 0 0
0 0 0 0 0 0 0 0 0 0 0 -0 -0 -0 -0 0 0 0 0 0 0 0 0 0 0 0 0 0 0 0 0 0 0 0 0 0 0 0 0 0 0 0 0
0 0 0 0 0 0 0 0 0 -0 -0 0 -0 -0 0 0 0 0 0 0 0 0 0 0 0 0 0 0 0 0 0 0 0 0 0 0 0 0 0 0 0 0 0
0 0 0 0 0 0 0 0 -0 0 0 0 0 0 0 0 0 0 0 0 0 0 0 0 0 0 0 0 0 0 0 0 0 0 0 0 0 0 0 0 0 0 0
0 0 0 0 0 0 0 0 0 0 0 0 0 0 0 0 0 0 0 0 0 0 0 0 0 0 0 0 0 0 0 0 0 0 0 0 0 0 0 0 0 0 0
0 0 0 0 0 0 0 0 0 0 0 0 0 0 0 0 0 0 0 0 0 0 0 0 0 0 0 0 0 0 0 0 0 0 0 0 0 0 0 0 0 0 0
0 0 0 0 0 0 0 0 0 0 0 0 0 0 0 0 0 0 0 0 0 0 0 0 0 0 0 0 0 0 0 0 0 0 0 0 0 0 0 0 0 0 0
0 0 0 0 0 0 0 0 0 0 0 0 0 0 0 0 0 0 0 0 0 0 0 0 0 0 0 0 0 0 0 0 0 0 0 0 0 0 -0 0 0 0 0
0 0 0 0 0 0 0 0 0 0 0 0 0 0 0 0 0 0 0 0 0 0 0 0 0 0 0 0 0 0 0 -0 0 0 0 0 0 0 -0 -0 0 0 0
0 0 0 0 0 0 0 0 0 0 0 0 0 0 0 0 0 0 0 0 0 0 0 0 0 0 0 0 0 0 0 0 0 -0 0 -0 0 0 0 0 0 0 0
0 0 0 0 0 0 0 0 0 0 0 0 0 0 0 0 0 0 0 0 0 0 0 0 0 0 0 0 0 0 0 0 0 0 -0 -0 0 0 0 0 0 0 -0
0 0 0 0 0 0 0 0 0 0 0 0 0 0 0 0 0 0 0 0 0 0 0 0 0 0 0 0 0 0 0 0 0 0 0 -0 -0 0 0 -0 0 -0 -0
0 0 0 0 0 0 0 0 0 0 0 0 0 0 0 0 0 0 0 0 0 0 0 0 0 0 0 0 0 0 0 0 0 0 0 0 -0 0 0 -0 -0 -0 -0
0 0 0 0 0 0 0 0 0 0 0 0 0 0 0 0 0 0 0 0 0 0 0 0 0 0 0 0 0 0 0 0 0 0 0 -0 -0 -0 -0 -0 -0 -0 -0
0 0 0 0 0 0 0 0 0 0 0 0 0 0 0 0 0 0 0 0 0 0 0 0 0 0 0 0 0 0 0 0 0 0 0 -0 0 -0 -0 0 0 -0 0
0 0 0 0 0 0 0 0 0 0 0 0 0 0 0 0 0 0 0 0 0 0 0 0 0 0 0 0 0 0 0 0 0 0 0 0 0 0 -0 -0 0 0 0
0 0 0 0 0 0 0 0 0 0 0 0 0 0 0 0 0 0 0 0 0 0 0 0 0 0 0 0 0 0 0 0 0 -0 0 -0 -0 0 0 0 0 0 0
0 0 0 0 0 0 0 0 0 0 0 0 0 0 0 0 0 0 0 0 0 0 0 0 0 0 0 0 0 0 0 0 -0 0 -0 0 0 0 0 0 0 0 0
0 0 0 0 0 0 0 0 0 0 0 0 0 0 0 0 0 0 0 0 0 0 0 0 0 0 -0 0 -0 -0 -0 0 -0 -0 0 0 0 0 0 0 0 0 0
0 0 0 0 0 0 0 0 0 0 0 0 0 0 0 0 0 0 0 -0 0 0 0 0 0 0 -0 -0 -0 0 -0 0 0 0 0 0 0 0 0 0 0 0 0
0 0 0 0 0 0 0 0 -0 -0 -0 -0 -0 0 0 0 -0 -0 -0 -0 -0 -0 -0 0 0 -0 -0 0 0 0 0 0 0 0 0 0 0 0 0 0 0 0 0
0 0 0 0 0 0 0 0 -0 -0 -0 -0 -0 -0 -0 -0 -0 -0 -0 -0 -0 -0 0 0 0 0 0 0 0 0 0 0 0 0 0 0 0 0 0 0 0 0 0
0 0 0 0 0 0 0 0 -0 0 0 -0 -0 -0 0 0 0 0 -0 -0 0 0 0 0 0 0 0 0 0 0 0 0 0 0 0 0 0 0 0 0 0 0 0
0 0 0 0 0 0 0 0 -0 0 0 0 0 0 0 0 0 0 0 0 0 0 0 0 0 0 0 0 0 0 0 0 0 0 0 0 0 0 0 0 0 0 0
0 0 0 0 0 0 0 0 -0 -0 0 0 0 0 0 0 0 0 0 0 0 0 0 0 0 0 0 0 0 0 0 0 0 0 0 0 0 0 0 0 0 0 0
0 0 0 0 0 0 0 0 0 0 0 0 0 0 0 0 0 0 0 0 0 0 0 0 0 0 0 0 0 0 0 0 0 0 0 0 0 0 0 0 0 0 0
Wind_Speed_500mb
28 36 36 42 52 49 45 42 27 16 22 40 35 23 51 33 31 37 45 58 59 56 57 57 61 64 61 63 57 46 53 53 42 42 41 42 29 24 28 36 36 24 31
24 30 41 54 52 56 50 31 17 11 27 32 31 36 53 35 38 40 55 62 58 57 58 62 64 67 57 46 43 43 44 41 40 40 43 30 32 17 42 31 30 36 39
27 36 45 54 52 50 42 13 38 18 12 32 43 41 40 38 46 53 61 60 57 61 61 64 65 66 55 40 41 38 42 47 40 32 31 19 16 51 27 32 32 35 46
24 32 46 55 48 36 26 20 41 45 18 23 35 37 41 46 55 61 63 59 57 59 63 66 66 64 45 36 35 36 36 37 38 35 25 29 37 36 42 37 38 45 43
25 33 33 37 33 26 24 27 18 17 22 32 33 36 46 52 56 56 56 58 58 65 65 57 49 42 29 31 31 34 35 36 36 34 37 37 37 32 36 52 53 46 39
35 36 34 28 19 11 12 18 17 18 21 23 29 36 45 50 51 55 59 55 62 50 33 35 34 29 28 32 36 40 42 35 37 37 35 33 35 42 35 38 49 50 47
33 27 18 7 6 6 9 9 9 13 19 28 38 46 50 52 54 58 55 47 34 27 28 30 22 29 31 30 35 38 41 36 35 31 33 33 33 33 34 36 44 50 50
26 23 21 22 20 14 12 16 21 27 34 38 40 43 46 50 51 44 37 31 26 25 26 27 25 28 30 29 30 37 41 38 30 31 30 30 29 30 30 35 42 55 37
28 27 21 16 17 21 25 31 37 40 41 42 41 38 35 29 24 23 22 25 24 26 26 28 24 27 25 23 22 32 39 28 23 31 23 27 26 25 27 29 29 26 25
23 18 18 24 29 33 38 42 43 41 36 30 24 19 17 21 25 27 27 26 26 27 29 28 25 24 22 23 21 21 32 31 28 30 27 31 34 26 25 25 24 24 21
15 16 21 28 38 40 41 42 40 35 27 20 17 19 21 23 26 27 27 26 25 28 28 25 23 22 20 23 21 20 29 26 29 29 32 34 33 31 29 28 28 25 28
14 21 28 34 40 44 47 42 34 25 18 20 21 22 20 22 27 31 29 27 27 25 26 23 21 21 20 25 19 17 21 24 26 31 36 40 40 33 31 31 25 20 17
18 34 32 36 42 44 40 31 22 17 19 21 19 18 21 23 30 29 25 25 25 24 23 22 21 20 21 25 21 18 20 19 22 26 31 39 44 34 27 24 22 15 10
35 26 25 32 39 38 30 22 19 21 22 21 18 21 26 28 31 28 26 27 26 25 20 20 20 21 25 26 24 21 23 22 23 22 29 43 46 38 29 22 18 13 11
15 19 28 33 31 24 19 21 24 25 22 19 17 22 26 29 30 26 25 27 28 26 22 22 24 27 23 26 30 29 21 19 20 25 28 42 46 38 23 18 16 9 5
14 25 32 31 20 21 23 25 25 25 22 17 20 24 28 27 29 30 31 32 30 27 22 22 24 28 24 24 30 31 24 15 20 24 30 42 46 23 13 10 15 4 2
22 31 27 18 20 23 26 26 27 26 25 27 28 28 26 26 29 32 35 35 33 27 25 24 24 25 27 28 28 26 24 21 23 25 33 37 33 18 12 12 9 6 10
28 26 18 19 21 22 26 30 30 31 34 35 35 31 29 27 29 33 36 34 34 32 29 28 29 30 31 33 26 24 22 19 21 32 29 26 23 18 12 9 8 8 15
26 16 19 23 24 29 33 32 29 31 32 32 37 29 25 27 29 33 35 40 39 33 28 28 28 28 31 29 15 16 14 18 22 20 19 23 15 16 13 11 15 16 23
15 16 20 23 27 32 27 35 32 31 34 33 36 34 25 25 30 28 35 40 39 27 28 26 22 25 26 22 14 15 17 17 16 15 16 20 23 22 16 19 21 26 26
15 19 24 26 30 31 32 35 34 33 35 32 31 30 28 27 27 35 35 40 30 22 21 24 21 25 21 24 22 20 20 19 20 21 27 28 30 27 23 21 27 31 31
19 22 29 28 24 31 31 30 39 38 37 28 31 29 28 30 32 35 31 32 31 25 19 17 20 25 22 19 21 23 22 23 26 27 26 30 31 34 37 39 36 31 28
24 29 35 30 31 32 27 33 45 38 32 25 32 29 30 31 29 30 27 27 37 30 25 24 25 26 26 24 24 25 27 27 30 32 31 32 36 39 37 32 26 28 27
29 29 32 31 29 29 29 34 36 34 30 26 28 30 31 27 26 28 24 29 42 33 33 28 27 27 24 28 29 31 31 33 35 33 30 31 31 30 29 30 28 33 34
29 30 31 32 31 28 31 32 31 31 28 24 26 26 27 26 24 30 33 38 36 36 31 32 32 35 36 35 33 33 35 35 36 37 35 38 39 38 37 37 38 38 40
28 28 31 33 31 29 29 33 32 31 39 27 30 31 28 29 34 33 36 40 43 42 43 43 43 41 37 37 40 42 38 33 33 37 41 42 42 45 47 50 52 53 52
Wind_Direction_500mb
184 203 197 183 166 157 161 162 157 126 17 336 314 330 293 281 277 295 304 311 308 309 312 315 317 318 320 322 325 323 323 323 323 319 315 318 314 307 320 322 323 325 329
154 154 165 162 156 159 157 128 95 1 327 287 279 283 277 280 287 297 303 303 304 304 308 310 314 318 319 321 325 325 326 320 317 321 321 325 323 310 323 325 332 326 332
136 141 158 160 165 163 152 110 359 0 346 274 267 267 269 281 287 295 293 294 298 302 307 313 317 319 320 321 324 325 323 319 320 317 313 314 309 322 324 326 332 333 335
141 151 160 169 172 166 160 333 356 330 280 264 254 267 278 285 291 293 292 295 300 305 312 318 320 321 321 321 325 330 333 326 325 329 323 310 308 314 319 325 328 329 335
135 139 146 162 172 193 333 318 317 274 249 268 271 275 277 284 288 292 296 301 307 312 315 321 329 330 328 340 348 344 341 335 329 327 325 321 314 315 317 317 327 330 334
138 140 157 167 193 273 277 295 272 273 283 278 278 279 285 291 296 300 304 308 311 316 324 335 347 360 357 347 340 340 337 336 328 323 325 321 313 309 312 314 321 325 331
124 136 152 151 313 5 39 29 358 324 298 293 292 291 295 299 302 305 310 318 325 327 328 331 335 340 339 346 345 352 347 338 334 326 318 313 315 315 313 318 319 323 331
98 96 95 92 75 57 27 358 336 318 309 302 299 303 308 312 314 313 314 320 317 322 327 327 317 334 345 350 360 354 344 338 332 336 334 324 316 319 320 318 322 324 330
100 99 92 69 32 7 347 340 334 326 316 310 308 311 311 313 324 331 326 320 321 317 317 323 327 332 337 342 345 354 356 3 355 359 355 343 329 326 324 327 326 331 324
100 81 46 16 3 353 345 339 334 329 325 325 328 334 342 336 330 327 322 318 318 314 317 321 322 328 331 338 329 349 0 7 2 3 9 9 2 355 346 352 348 347 342
75 39 9 8 354 342 334 331 333 338 342 349 354 341 335 330 331 329 325 325 328 325 325 324 323 322 324 337 339 345 5 3 9 3 7 1 2 359 351 351 357 355 358
18 19 5 337 334 336 336 336 338 346 353 347 344 338 335 332 332 327 319 317 325 328 332 332 321 321 323 333 338 347 343 355 354 352 354 352 352 348 344 349 355 356 358
10 339 327 339 334 334 333 337 348 353 344 339 340 342 337 334 338 340 342 337 337 331 330 330 327 325 327 332 329 318 325 328 340 342 345 352 350 344 339 346 347 349 344
319 329 338 334 333 332 337 348 348 338 334 336 341 347 342 340 343 346 346 345 343 338 333 336 338 339 339 342 341 328 323 323 331 326 332 346 348 341 335 342 348 349 358
344 336 333 331 333 338 348 344 342 337 334 339 346 346 351 355 353 346 342 342 344 342 338 347 350 348 352 360 353 346 326 313 319 326 328 340 340 336 326 339 344 356 13
335 335 333 335 349 352 352 349 352 353 350 342 334 341 346 347 349 350 350 348 345 343 333 331 337 341 341 347 348 352 353 327 325 328 334 339 337 336 326 332 330 328 118
335 336 342 359 353 350 351 353 349 349 346 340 334 331 330 334 334 343 348 344 343 339 330 322 318 320 323 327 333 345 347 333 329 338 333 344 342 354 342 337 345 17 167
339 346 354 356 354 353 350 346 344 339 333 329 325 322 321 321 327 341 344 347 347 340 333 328 323 322 318 313 314 330 338 341 342 340 346 351 354 355 5 11 41 84 136
342 357 358 353 358 351 345 341 342 349 352 348 349 327 315 324 335 342 347 349 343 342 340 340 337 338 341 338 322 331 350 354 345 352 359 355 12 22 26 77 98 106 105
21 4 358 354 350 345 345 342 340 342 347 351 357 351 345 340 339 341 347 345 343 348 349 351 344 353 7 18 42 36 13 11 20 24 12 38 43 40 66 98 111 105 101
15 7 356 353 347 349 347 348 353 348 342 350 347 349 346 338 0 354 347 346 347 340 340 349 4 17 33 45 46 45 33 37 42 48 52 51 51 62 76 100 99 99 107
11 6 357 351 351 349 350 353 354 348 349 354 355 359 6 357 355 351 348 351 357 357 2 19 40 49 47 52 52 42 49 58 65 62 62 63 69 78 87 94 89 88 92
10 353 350 359 359 354 351 351 353 354 355 357 2 358 355 346 351 353 4 25 33 37 51 60 62 58 61 61 51 59 56 66 69 69 73 80 76 85 87 89 88 70 84
3 8 8 5 355 355 354 353 352 359 356 350 358 351 354 7 4 8 43 51 37 50 57 67 65 67 64 61 72 55 67 76 78 81 83 82 84 91 83 85 85 87 88
16 15 5 1 1 1 353 350 353 357 355 357 0 10 7 18 36 57 66 48 35 43 62 70 74 79 75 74 63 70 79 80 82 85 83 80 81 84 87 87 87 89 90
23 13 17 15 11 7 15 24 26 36 29 49 47 47 46 48 69 70 58 64 59 67 72 75 79 81 74 71 74 76 77 79 82 80 80 81 82 83 88 88 87 87 88
Wind_Speed_850mb
28 36 36 42 52 49 45 42 27 16 22 40 35 23 51 33 31 37 45 58 59 56 57 57 61 64 61 63 57 46 53 53 42 42 41 42 29 24 28 36 36 24 31
24 30 41 54 52 56 50 31 17 11 27 32 31 36 53 35 38 40 55 62 58 57 58 62 64 67 57 46 43 43 44 41 40 40 43 30 32 17 42 31 30 36 39
27 36 45 54 52 50 42 13 38 18 12 32 43 41 40 38 46 53 61 60 57 61 61 64 65 66 55 40 41 38 42 47 40 32 31 19 16 51 27 32 32 35 46
24 32 46 55 48 36 26 20 41 45 18 23 35 37 41 46 55 61 63 59 57 59 63 66 66 64 45 36 35 36 36 37 38 35 25 29 37 36 42 37 38 45 43
25 33 33 37 33 26 24 27 18 17 22 32 33 36 46 52 56 56 56 58 58 65 65 57 49 42 29 31 31 34 35 36 36 34 37 37 37 32 36 52 53 46 39
35 36 34 28 19 11 12 18 17 18 21 23 29 36 45 50 51 55 59 55 62 50 33 35 34 29 28 32 36 40 42 35 37 37 35 33 35 42 35 38 49 50 47
33 27 18 7 6 6 9 9 9 13 19 28 38 46 50 52 54 58 55 47 34 27 28 30 22 29 31 30 35 38 41 36 35 31 33 33 33 33 34 36 44 50 50
26 23 21 22 20 14 12 16 21 27 34 38 40 43 46 50 51 44 37 31 26 25 26 27 25 28 30 29 30 37 41 38 30 31 30 30 29 30 30 35 42 55 37
28 27 21 16 17 21 25 31 37 40 41 42 41 38 35 29 24 23 22 25 24 26 26 28 24 27 25 23 22 32 39 28 23 31 23 27 26 25 27 29 29 26 25
23 18 18 24 29 33 38 42 43 41 36 30 24 19 17 21 25 27 27 26 26 27 29 28 25 24 22 23 21 21 32 31 28 30 27 31 34 26 25 25 24 24 21
15 16 21 28 38 40 41 42 40 35 27 20 17 19 21 23 26 27 27 26 25 28 28 25 23 22 20 23 21 20 29 26 29 29 32 34 33 31 29 28 28 25 28
14 21 28 34 40 44 47 42 34 25 18 20 21 22 20 22 27 31 29 27 27 25 26 23 21 21 20 25 19 17 21 24 26 31 36 40 40 33 31 31 25 20 17
18 34 32 36 42 44 40 31 22 17 19 21 19 18 21 23 30 29 25 25 25 24 23 22 21 20 21 25 21 18 20 19 22 26 31 39 44 34 27 24 22 15 10
35 26 25 32 39 38 30 22 19 21 22 21 18 21 26 28 31 28 26 27 26 25 20 20 20 21 25 26 24 21 23 22 23 22 29 43 46 38 29 22 18 13 11
15 19 28 33 31 24 19 21 24 25 22 19 17 22 26 29 30 26 25 27 28 26 22 22 24 27 23 26 30 29 21 19 20 25 28 42 46 38 23 18 16 9 5
14 25 32 31 20 21 23 25 25 25 22 17 20 24 28 27 29 30 31 32 30 27 22 22 24 28 24 24 30 31 24 15 20 24 30 42 46 23 13 10 15 4 2
22 31 27 18 20 23 26 26 27 26 25 27 28 28 26 26 29 32 35 35 33 27 25 24 24 25 27 28 28 26 24 21 23 25 33 37 33 18 12 12 9 6 10
28 26 18 19 21 22 26 30 30 31 34 35 35 31 29 27 29 33 36 34 34 32 29 28 29 30 31 33 26 24 22 19 21 32 29 26 23 18 12 9 8 8 15
26 16 19 23 24 29 33 32 29 31 32 32 37 29 25 27 29 33 35 40 39 33 28 28 28 28 31 29 15 16 14 18 22 20 19 23 15 16 13 11 15 16 23
15 16 20 23 27 32 27 35 32 31 34 33 36 34 25 25 30 28 35 40 39 27 28 26 22 25 26 22 14 15 17 17 16 15 16 20 23 22 16 19 21 26 26
15 19 24 26 30 31 32 35 34 33 35 32 31 30 28 27 27 35 35 40 30 22 21 24 21 25 21 24 22 20 20 19 20 21 27 28 30 27 23 21 27 31 31
19 22 29 28 24 31 31 30 39 38 37 28 31 29 28 30 32 35 31 32 31 25 19 17 20 25 22 19 21 23 22 23 26 27 26 30 31 34 37 39 36 31 28
24 29 35 30 31 32 27 33 45 38 32 25 32 29 30 31 29 30 27 27 37 30 25 24 25 26 26 24 24 25 27 27 30 32 31 32 36 39 37 32 26 28 27
29 29 32 31 29 29 29 34 36 34 30 26 28 30 31 27 26 28 24 29 42 33 33 28 27 27 24 28 29 31 31 33 35 33 30 31 31 30 29 30 28 33 34
29 30 31 32 31 28 31 32 31 31 28 24 26 26 27 26 24 30 33 38 36 36 31 32 32 35 36 35 33 33 35 35 36 37 35 38 39 38 37 37 38 38 40
28 28 31 33 31 29 29 33 32 31 39 27 30 31 28 29 34 33 36 40 43 42 43 43 43 41 37 37 40 42 38 33 33 37 41 42 42 45 47 50 52 53 52
Wind_Direction_850mb
184 203 197 183 166 157 161 162 157 126 17 336 314 330 293 281 277 295 304 311 308 309 312 315 317 318 320 322 325 323 323 323 323 319 315 318 314 307 320 322 323 325 329
154 154 165 162 156 159 157 128 95 1 327 287 279 283 277 280 287 297 303 303 304 304 308 310 314 318 319 321 325 325 326 320 317 321 321 325 323 310 323 325 332 326 332
136 141 158 160 165 163 152 110 359 0 346 274 267 267 269 281 287 295 293 294 298 302 307 313 317 319 320 321 324 325 323 319 320 317 313 314 309 322 324 326 332 333 335
141 151 160 169 172 166 160 333 356 330 280 264 254 267 278 285 291 293 292 295 300 305 312 318 320 321 321 321 325 330 333 326 325 329 323 310 308 314 319 325 328 329 335
135 139 146 162 172 193 333 318 317 274 249 268 271 275 277 284 288 292 296 301 307 312 315 321 329 330 328 340 348 344 341 335 329 327 325 321 314 315 317 317 327 330 334
138 140 157 167 193 273 277 295 272 273 283 278 278 279 285 291 296 300 304 308 311 316 324 335 347 360 357 347 340 340 337 336 328 323 325 321 313 309 312 314 321 325 331
124 136 152 151 313 5 39 29 358 324 298 293 292 291 295 299 302 305 310 318 325 327 328 331 335 340 339 346 345 352 347 338 334 326 318 313 315 315 313 318 319 323 331
98 96 95 92 75 57 27 358 336 318 309 302 299 303 308 312 314 313 314 320 317 322 327 327 317 334 345 350 360 354 344 338 332 336 334 324 316 319 320 318 322 324 330
100 99 92 69 32 7 347 340 334 326 316 310 308 311 311 313 324 331 326 320 321 317 317 323 327 332 337 342 345 354 356 3 355 359 355 343 329 326 324 327 326 331 324
100 81 46 16 3 353 345 339 334 329 325 325 328 334 342 336 330 327 322 318 318 314 317 321 322 328 331 338 329 349 0 7 2 3 9 9 2 355 346 352 348 347 342
75 39 9 8 354 342 334 331 333 338 342 349 354 341 335 330 331 329 325 325 328 325 325 324 323 322 324 337 339 345 5 3 9 3 7 1 2 359 351 351 357 355 358
18 19 5 337 334 336 336 336 338 346 353 347 344 338 335 332 332 327 319 317 325 328 332 332 321 321 323 333 338 347 343 355 354 352 354 352 352 348 344 349 355 356 358
10 339 327 339 334 334 333 337 348 353 344 339 340 342 337 334 338 340 342 337 337 331 330 330 327 325 327 332 329 318 325 328 340 342 345 352 350 344 339 346 347 349 344
319 329 338 334 333 332 337 348 348 338 334 336 341 347 342 340 343 346 346 345 343 338 333 336 338 339 339 342 341 328 323 323 331 326 332 346 348 341 335 342 348 349 358
344 336 333 331 333 338 348 344 342 337 334 339 346 346 351 355 353 346 342 342 344 342 338 347 350 348 352 360 353 346 326 313 319 326 328 340 340 336 326 339 344 356 13
335 335 333 335 349 352 352 349 352 353 350 342 334 341 346 347 349 350 350 348 345 343 333 331 337 341 341 347 348 352 353 327 325 328 334 339 337 336 326 332 330 328 118
335 336 342 359 353 350 351 353 349 349 346 340 334 331 330 334 334 343 348 344 343 339 330 322 318 320 323 327 333 345 347 333 329 338 333 344 342 354 342 337 345 17 167
339 346 354 356 354 353 350 346 344 339 333 329 325 322 321 321 327 341 344 347 347 340 333 328 323 322 318 313 314 330 338 341 342 340 346 351 354 355 5 11 41 84 136
342 357 358 353 358 351 345 341 342 349 352 348 349 327 315 324 335 342 347 349 343 342 340 340 337 338 341 338 322 331 350 354 345 352 359 355 12 22 26 77 98 106 105
21 4 358 354 350 345 345 342 340 342 347 351 357 351 345 340 339 341 347 345 343 348 349 351 344 353 7 18 42 36 13 11 20 24 12 38 43 40 66 98 111 105 101
15 7 356 353 347 349 347 348 353 348 342 350 347 349 346 338 0 354 347 346 347 340 340 349 4 17 33 45 46 45 33 37 42 48 52 51 51 62 76 100 99 99 107
11 6 357 351 351 349 350 353 354 348 349 354 355 359 6 357 355 351 348 351 357 357 2 19 40 49 47 52 52 42 49 58 65 62 62 63 69 78 87 94 89 88 92
10 353 350 359 359 354 351 351 353 354 355 357 2 358 355 346 351 353 4 25 33 37 51 60 62 58 61 61 51 59 56 66 69 69 73 80 76 85 87 89 88 70 84
3 8 8 5 355 355 354 353 352 359 356 350 358 351 354 7 4 8 43 51 37 50 57 67 65 67 64 61 72 55 67 76 78 81 83 82 84 91 83 85 85 87 88
16 15 5 1 1 1 353 350 353 357 355 357 0 10 7 18 36 57 66 48 35 43 62 70 74 79 75 74 63 70 79 80 82 85 83 80 81 84 87 87 87 89 90
23 13 17 15 11 7 15 24 26 36 29 49 47 47 46 48 69 70 58 64 59 67 72 75 79 81 74 71 74 76 77 79 82 80 80 81 82 83 88 88 87 87 88